Location: ???
(35.5616°N, 139.7977°E)
Time: 20:11:56
(UTC+00:00)

SWARM A - Pass Details

Date: 17 November 2025
Orbit: 426 x 429 km, 87.3° (Epoch: 08 December)

Event Time Altitude Azimuth Distance (km) Brightness Sun altitude
Rises 20:06:55 0° 190° (S) 2,390 8.0 -14.8°
Reaches altitude 10° 20:08:59 10° 195° (SSW) 1,527 7.0 -14.4°
Maximum altitude 20:12:12 50° 272° (W) 555 4.3 -13.7°
Drops below altitude 10° 20:15:27 10° 350° (N) 1,537 6.8 -13.1°
Sets 20:17:32 0° 355° (N) 2,408 7.8 -12.7°
